Regional Weather Roundup
Issued by NWS

Home | Current Version | Previous Version | Graphics & Text | Print | Product List | Glossary On
Versions: 1 2 3 4 5 6 7 8 9 10 11 12 13 14 15 16 17 18 19 20 21 22 23 24 25 26 27 28 29 30 31 32 33 34 35 36 37 38 39 40 41 42 43 44 45 46 47 48 49 50
000
ASUS43 KOAX 290802
RWRNE

WEATHER ROUNDUP FOR NEBRASKA
NATIONAL WEATHER SERVICE OMAHA NE
300 AM CDT FRI APR 29 2016

NOTES: SATELLITE DATA IS BEING USED TO AUGMENT CLOUD COVER ABOVE
       12000 FEET.
       "FAIR" INDICATES FEW OR NO CLOUDS BELOW 12,000 FEET WITH NO
       SIGNIFICANT WEATHER AND/OR OBSTRUCTIONS TO VISIBILITY.

  * THESE STATIONS DO NOT REPORT WEATHER SUCH AS RAIN...SNOW OR FOG.

NEZ001>004-019>022-054>056-290900-
NEBRASKA PANHANDLE

CITY           SKY/WX    TMP DP  RH WIND       PRES   REMARKS
SCOTTSBLUFF    CLOUDY    35  32  88 NE8       30.10S WCI  29
ALLIANCE       CLOUDY    36  35  96 CALM      30.08F
CHADRON        CLOUDY    38  36  92 CALM      30.12R
KIMBALL        CLOUDY    33  32  99 E5        30.07F WCI  28
SIDNEY         CLOUDY    33  32  96 NE6       30.08F FOG     WCI  28
$$

NEZ057>060-069>072-079>082-290900-
SOUTHWEST NEBRASKA

CITY           SKY/WX    TMP DP  RH WIND       PRES   REMARKS
NORTH PLATTE   CLOUDY    41  38  89 NE6       30.10F
IMPERIAL       CLOUDY    42  38  85 E6        30.08F
LEXINGTON      CLOUDY    42  40  89 E7        30.12S
MCCOOK         CLOUDY    44  40  85 NE8       30.08F
$$

NEZ005>010-023>029-035>040-094-290900-
NORTH CENTRAL NEBRASKA

CITY           SKY/WX    TMP DP  RH WIND       PRES   REMARKS
VALENTINE      CLOUDY    39  36  89 NW5       30.12F
AINSWORTH      CLOUDY    39  39  99 N6        30.09F FOG     WCI  35
BROKEN BOW     CLOUDY    40  37  89 N3        30.10F
ORD            CLOUDY    41  38  89 NW5       30.10F
$$

NEZ041-046>049-061>064-073>077-083>087-290900-
SOUTH CENTRAL NEBRASKA

CITY           SKY/WX    TMP DP  RH WIND       PRES   REMARKS
GRAND ISLAND   CLOUDY    42  39  89 N5        30.12F
AURORA         CLOUDY    42  41  95 NE3       30.11F
HASTINGS       CLOUDY    43  39  86 NE5       30.11F
KEARNEY *      CLOUDY    43  39  87 NE6       30.12F
YORK           CLOUDY    43  39  87 N5        30.12S
$$

NEZ011>018-030>034-042>045-290900-
NORTHEAST NEBRASKA

CITY           SKY/WX    TMP DP  RH WIND       PRES   REMARKS
NORFOLK        CLOUDY    42  38  85 NW5       30.11F
ALBION         CLOUDY    42  38  87 CALM      30.12F
BLAIR          CLOUDY    44  41  89 N7        30.11S
COLUMBUS *     CLOUDY    43  36  75 CALM      30.13S
FREMONT        CLOUDY    43  42  94 NW3       30.13S
TEKAMAH        CLOUDY    44  41  89 N7        30.12F
$$

NEZ050>053-065>068-078-088>093-290900-
SOUTHEAST NEBRASKA

CITY           SKY/WX    TMP DP  RH WIND       PRES   REMARKS
LINCOLN        CLOUDY    46  40  79 N5        30.14S
OMAHA EPPLEY   CLOUDY    45  42  89 NW5       30.12S
BEATRICE       CLOUDY    46  42  84 NE6       30.12S
FALLS CITY     CLOUDY    49  42  77 N5        30.13R
NEBRASKA CITY  CLOUDY    46  40  79 N8        30.12S
$$

NEZ044-045-051>053-067-290900-
OMAHA AREA

CITY           SKY/WX    TMP DP  RH WIND       PRES   REMARKS
OMAHA EPPLEY   CLOUDY    45  42  89 NW5       30.12S
BLAIR          CLOUDY    44  41  89 N7        30.11S
FREMONT        CLOUDY    43  42  94 NW3       30.13S
OFFUTT AFB     CLOUDY    45  42  87 N2        30.12R
WAHOO          CLOUDY    45  40  84 N7        30.12S
$$




USA.gov is the U.S. government's official web portal to all federal, state and local government web resources and services.